| time (UTC) | temp F | wind direction | speed knots | gust knots | rain 1hr in | rain 24hr in | rain mn in | humidity % | barometer mb |
| 20260906133058 | 59 | 58 | 0.9 | 7.8 | 0.00 | 0.05 | 0.05 | 88 | 1013.7 |
| 20260906131557 | 58 | 22 | 0.9 | 4.3 | 0.00 | 0.05 | 0.05 | 89 | 1013.7 |
| 20260906130056 | 58 | 15 | 0.0 | 3.5 | 0.00 | 0.05 | 0.05 | 89 | 1013.6 |
| 20260906124554 | 58 | 9 | 0.0 | 4.3 | 0.00 | 0.05 | 0.05 | 90 | 1013.5 |
| 20260906123054 | 57 | 317 | 0.0 | 2.6 | 0.00 | 0.05 | 0.05 | 90 | 1013.8 |
| 20260906121553 | 57 | 37 | 0.9 | 2.6 | 0.00 | 0.05 | 0.05 | 90 | 1013.6 |
| 20260906120053 | 56 | 38 | 0.0 | 1.7 | 0.00 | 0.05 | 0.05 | 90 | 1013.5 |
| 20260906114551 | 56 | 37 | 0.9 | 2.6 | 0.00 | 0.05 | 0.05 | 90 | 1013.4 |
| 20260906113058 | 56 | 35 | 0.0 | 4.3 | 0.01 | 0.05 | 0.05 | 91 | 1013.4 |
| 20260906111550 | 56 | 329 | 0.0 | 1.7 | 0.02 | 0.05 | 0.05 | 90 | 1013.3 |
| 20260906110046 | 55 | 333 | 0.0 | 0.9 | 0.03 | 0.05 | 0.05 | 90 | 1013.1 |
| 20260906104555 | 55 | 335 | 0.0 | 0.9 | 0.03 | 0.05 | 0.05 | 91 | 1012.9 |
| 20260906103043 | 55 | 334 | 0.0 | 1.7 | 0.02 | 0.04 | 0.04 | 91 | 1012.9 |
| 20260906101543 | 55 | 334 | 0.0 | 1.7 | 0.01 | 0.03 | 0.03 | 90 | 1012.9 |
| 20260906100044 | 55 | 333 | 0.0 | 0.9 | 0.00 | 0.02 | 0.02 | 90 | 1012.8 |
| 20260906094606 | 55 | 333 | 0.0 | 0.9 | 0.00 | 0.02 | 0.02 | 90 | 1012.7 |
| 20260906093039 | 54 | 333 | 0.0 | 0.0 | 0.00 | 0.02 | 0.02 | 90 | 1012.6 |
| 20260906091542 | 54 | 333 | 0.0 | 0.0 | 0.00 | 0.02 | 0.02 | 90 | 1012.3 |
| 20260906090035 | 54 | 333 | 0.0 | 0.0 | 0.00 | 0.02 | 0.02 | 90 | 1012.3 |
| 20260906084538 | 54 | 333 | 0.0 | 0.0 | 0.00 | 0.02 | 0.02 | 90 | 1012.3 |
| 20260906083036 | 54 | 333 | 0.0 | 0.9 | 0.01 | 0.02 | 0.02 | 89 | 1012.2 |
| 20260906081543 | 55 | 333 | 0.0 | 0.9 | 0.02 | 0.02 | 0.02 | 89 | 1012.1 |
| 20260906080028 | 55 | 333 | 0.0 | 1.7 | 0.02 | 0.02 | 0.02 | 88 | 1012.0 |
| 20260906074527 | 56 | 333 | 0.0 | 1.7 | 0.02 | 0.02 | 0.02 | 87 | 1012.0 |
| 20260906073026 | 56 | 333 | 0.0 | 2.6 | 0.01 | 0.01 | 0.01 | 88 | 1012.0 |
| 20260906071526 | 56 | 355 | 0.0 | 1.7 | 0.00 | 0.00 | 0.00 | 87 | 1011.8 |
| 20260906070025 | 56 | 355 | 0.0 | 0.9 | 0.00 | 0.00 | 0.00 | 88 | 1012.1 |
| 20260906064523 | 56 | 355 | 0.0 | 0.9 | 0.00 | 0.00 | 0.00 | 87 | 1011.9 |
| 20260906063028 | 56 | 355 | 0.0 | 1.7 | 0.00 | 0.00 | 0.00 | 88 | 1011.7 |
| 20260906061532 | 56 | 355 | 0.0 | 0.9 | 0.00 | 0.00 | 0.00 | 87 | 1011.7 |
| 20260906060020 | 55 | 355 | 0.0 | 1.7 | 0.00 | 0.00 | 0.00 | 87 | 1011.8 |
| 20260906054519 | 55 | 355 | 0.0 | 1.7 | 0.00 | 0.00 | 0.00 | 87 | 1011.7 |
| 20260906053019 | 56 | 355 | 0.0 | 0.9 | 0.00 | 0.00 | 0.00 | 86 | 1011.8 |
| 20260906051516 | 56 | 355 | 0.0 | 1.7 | 0.00 | 0.00 | 0.00 | 86 | 1011.9 |
| 20260906050016 | 56 | 355 | 0.0 | 0.9 | 0.00 | 0.00 | 0.00 | 86 | 1011.9 |
| 20260906044512 | 57 | 5 | 0.0 | 1.7 | 0.00 | 0.00 | 0.00 | 85 | 1011.8 |
| 20260906043010 | 57 | 9 | 0.0 | 0.9 | 0.00 | 0.00 | 0.00 | 84 | 1011.6 |
| 20260906041507 | 58 | 27 | 0.0 | 1.7 | 0.00 | 0.00 | 0.00 | 83 | 1011.7 |
| 20260906040005 | 58 | 58 | 0.0 | 1.7 | 0.00 | 0.00 | 0.00 | 83 | 1011.7 |
| 20260906034504 | 59 | 22 | 0.0 | 2.6 | 0.00 | 0.00 | 0.00 | 82 | 1011.7 |
| 20260906033002 | 60 | 36 | 0.0 | 2.6 | 0.00 | 0.00 | 0.00 | 82 | 1011.4 |
| 20260906031502 | 60 | 61 | 0.9 | 3.5 | 0.00 | 0.00 | 0.00 | 81 | 1011.4 |
| 20260906030002 | 60 | 59 | 1.7 | 4.3 | 0.00 | 0.00 | 0.00 | 82 | 1011.4 |
| 20260906024603 | 60 | 26 | 0.0 | 2.6 | 0.00 | 0.00 | 0.00 | 83 | 1011.4 |
| 20260906023058 | 60 | 265 | 0.0 | 2.6 | 0.00 | 0.00 | 0.00 | 83 | 1011.2 |
| 20260906021605 | 60 | 111 | 0.9 | 4.3 | 0.00 | 0.00 | 0.00 | 83 | 1011.1 |
| 20260906014559 | 61 | 59 | 0.0 | 2.6 | 0.00 | 0.00 | 0.00 | 83 | 1011.0 |
| 20260906013157 | 62 | 9 | 0.0 | 1.7 | 0.00 | 0.00 | 0.00 | 84 | 1011.2 |
| 20260906011557 | 62 | 330 | 0.0 | 1.7 | 0.00 | 0.00 | 0.00 | 83 | 1011.0 |
| 20260906010105 | 62 | 329 | 0.0 | 0.9 | 0.00 | 0.00 | 0.00 | 83 | 1011.1 |
| 20260906004557 | 63 | 329 | 0.0 | 0.9 | 0.00 | 0.00 | 0.00 | 81 | 1011.0 |
| 20260906003052 | 63 | 329 | 0.0 | 1.7 | 0.00 | 0.00 | 0.00 | 83 | 1010.9 |
| 20260906001600 | 63 | 329 | 0.0 | 2.6 | 0.00 | 0.00 | 0.00 | 81 | 1010.7 |
| 20260906000050 | 63 | 44 | 0.0 | 0.9 | 0.00 | 0.00 | 0.00 | 80 | 1010.5 |
| 20260905234547 | 63 | 47 | 0.0 | 1.7 | 0.00 | 0.00 | 0.00 | 80 | 1010.5 |
| 20260905233047 | 64 | 75 | 0.0 | 1.7 | 0.00 | 0.00 | 0.00 | 82 | 1010.3 |
| 20260905231546 | 64 | 74 | 0.0 | 0.9 | 0.00 | 0.00 | 0.00 | 81 | 1010.3 |
| 20260905230051 | 65 | 74 | 0.0 | 0.9 | 0.00 | 0.00 | 0.00 | 77 | 1010.1 |
| 20260905224544 | 66 | 74 | 0.0 | 0.9 | 0.00 | 0.00 | 0.00 | 75 | 1010.2 |
| 20260905223043 | 67 | 5 | 1.7 | 5.2 | 0.00 | 0.00 | 0.00 | 72 | 1010.0 |
| 20260905221546 | 67 | 37 | 0.0 | 3.5 | 0.00 | 0.00 | 0.00 | 75 | 1009.8 |
| 20260905220035 | 68 | 53 | 0.0 | 1.7 | 0.00 | 0.00 | 0.00 | 76 | 1009.7 |
| 20260905214533 | 68 | 29 | 0.9 | 6.1 | 0.00 | 0.00 | 0.00 | 70 | 1009.4 |
| 20260905213035 | 68 | 12 | 0.0 | 4.3 | 0.00 | 0.00 | 0.00 | 74 | 1009.3 |
| 20260905211542 | 69 | 94 | 0.9 | 6.1 | 0.00 | 0.00 | 0.00 | 72 | 1009.2 |
| 20260905210031 | 69 | 320 | 0.9 | 5.2 | 0.00 | 0.00 | 0.00 | 68 | 1009.1 |
| 20260905204529 | 70 | 333 | 0.9 | 7.8 | 0.00 | 0.00 | 0.00 | 68 | 1009.0 |
| 20260905203032 | 70 | 227 | 0.9 | 5.2 | 0.00 | 0.00 | 0.00 | 70 | 1008.9 |
| 20260905201534 | 70 | 310 | 1.7 | 5.2 | 0.00 | 0.00 | 0.00 | 68 | 1008.8 |
| 20260905200045 | 70 | 328 | 3.5 | 7.8 | 0.00 | 0.00 | 0.00 | 66 | 1008.8 |
| 20260905194526 | 71 | 355 | 4.3 | 9.6 | 0.00 | 0.00 | 0.00 | 63 | 1008.8 |
| 20260905193025 | 71 | 334 | 2.6 | 10.4 | 0.00 | 0.00 | 0.00 | 65 | 1008.8 |
| 20260905191525 | 70 | 9 | 1.7 | 7.0 | 0.00 | 0.00 | 0.00 | 67 | 1008.8 |
| 20260905190022 | 69 | 330 | 0.9 | 5.2 | 0.00 | 0.00 | 0.00 | 71 | 1008.7 |
| 20260905184621 | 68 | 60 | 2.6 | 7.8 | 0.00 | 0.00 | 0.00 | 71 | 1008.8 |
| 20260905183021 | 69 | 33 | 1.7 | 6.1 | 0.00 | 0.00 | 0.00 | 72 | 1008.7 |
| 20260905181520 | 68 | 42 | 3.5 | 7.8 | 0.00 | 0.00 | 0.00 | 74 | 1008.8 |
| 20260905180020 | 69 | 47 | 0.9 | 5.2 | 0.00 | 0.00 | 0.00 | 76 | 1008.8 |
| 20260905174519 | 67 | 360 | 2.6 | 6.1 | 0.00 | 0.06 | 0.00 | 78 | 1008.8 |
| 20260905173019 | 66 | 29 | 0.0 | 7.0 | 0.00 | 0.06 | 0.00 | 80 | 1008.8 |
| 20260905171534 | 70 | 84 | 6.1 | 9.6 | 0.00 | 0.06 | 0.00 | 70 | 1008.8 |
| 20260905170017 | 68 | 44 | 2.6 | 6.1 | 0.00 | 0.06 | 0.00 | 77 | 1008.7 |
| 20260905164516 | 68 | 91 | 1.7 | 7.8 | 0.00 | 0.06 | 0.00 | 78 | 1008.8 |
| 20260905163018 | 69 | 360 | 2.6 | 5.2 | 0.00 | 0.06 | 0.00 | 74 | 1008.7 |
| 20260905161519 | 69 | 37 | 0.9 | 4.3 | 0.00 | 0.06 | 0.00 | 74 | 1008.8 |
| 20260905160025 | 69 | 63 | 2.6 | 7.0 | 0.00 | 0.06 | 0.00 | 73 | 1008.7 |
| 20260905154507 | 66 | 36 | 0.9 | 3.5 | 0.00 | 0.06 | 0.00 | 81 | 1008.9 |
| 20260905153008 | 66 | 360 | 1.7 | 4.3 | 0.00 | 0.06 | 0.00 | 81 | 1008.9 |
| 20260905151505 | 67 | 51 | 1.7 | 5.2 | 0.00 | 0.06 | 0.00 | 78 | 1008.9 |
| 20260905150002 | 65 | 332 | 3.5 | 6.1 | 0.00 | 0.06 | 0.00 | 81 | 1008.9 |
| 20260905144600 | 64 | 13 | 0.9 | 4.3 | 0.00 | 0.06 | 0.00 | 85 | 1008.8 |
| 20260905143059 | 64 | 27 | 0.0 | 3.5 | 0.00 | 0.06 | 0.00 | 85 | 1008.8 |
| 20260905141557 | 64 | 79 | 1.7 | 7.0 | 0.00 | 0.06 | 0.00 | 84 | 1008.7 |
| 20260905140057 | 65 | 119 | 1.7 | 7.0 | 0.00 | 0.06 | 0.00 | 83 | 1008.5 |
| 20260905134557 | 65 | 79 | 2.6 | 7.8 | 0.00 | 0.06 | 0.00 | 83 | 1008.3 |